[[{"header":{"parameterUnit":"m.s-1","parameterCategory":1,"la1":30.2991,"la2":30.254,"lo1":-89.0895,"lo2":-89.0444,"dy":0.0017,"dx":0.0017,"nx":28,"ny":28,"refTime":"2024-06-16T09:00:00:Z","depth":0,"parameterNumber":2,"parameterNumberName":"U-component_of_WINDS"},"data":[0,0,0,0,0,0,0,0,0,0,0,0,0,0,0,0,0,0,0,0,0,0,0,0,0,0,0,0,0,0,0,0,0,0,0,0,0,0,0,0,0,0,0,0,0,0,0,0,0,0,0,0,0,0,0,0,0,0,-3.4588,-3.4589,0,-3.4642,-3.4643,-3.4643,-3.4585,-3.4582,-3.458,-3.4578,-3.4631,-3.4635,-3.4638,0,0,0,0,0,0,0,0,0,0,0,0,0,-3.4433,-3.4436,-3.4588,-3.4589,-3.459,-3.4642,-3.4643,-3.4643,-3.4585,-3.4582,-3.458,-3.4577,-3.463,-3.4634,-3.4639,0,0,0,0,0,0,0,0,0,0,0,0,0,-3.4495,-3.4437,-3.4588,-3.4567,-3.4565,-3.4642,-3.4643,-3.4644,-3.4586,-3.4582,-3.4579,-3.4576,-3.4629,-3.4634,-3.4639,-3.4739,0,0,-3.4655,-3.4658,0,0,0,0,0,0,0,0,-3.4492,-3.4501,-3.4569,-3.4568,-3.4567,-3.4603,-3.4608,-3.4676,-3.4586,-3.4578,-3.4578,-3.4574,-3.4625,-3.463,-3.4647,-3.4741,-3.4744,-3.4656,-3.4659,-3.4661,-3.4663,0,0,0,0,0,0,0,-3.4487,-3.4498,-3.4609,-3.457,-3.4569,-3.4554,-3.4559,-3.462,-3.4619,-3.4578,-3.4574,-3.4582,-3.4623,-3.4643,-3.4648,-3.4744,-3.4656,-3.466,-3.4664,-3.4666,-3.4922,-3.4925,0,0,0,0,0,0,-3.4486,-3.4495,-3.4608,-3.4611,-3.452,-3.4559,-3.4565,-3.4595,-3.4619,-3.4619,-3.4584,-3.4579,-3.4635,-3.4642,-3.465,-3.4767,-3.4661,-3.4666,-3.4669,-3.4918,-3.4922,-3.4926,0,0,0,0,0,0,-3.4483,-3.4496,-3.4606,-3.4552,-3.4565,-3.4566,-3.46,-3.4598,-3.4617,-3.4623,-3.4622,-3.4604,-3.4633,-3.4643,-3.4717,-3.4768,-3.4669,-3.4673,-3.4914,-3.4919,-3.4924,-3.5002,0,0,0,0,0,0,-3.4478,-3.4496,-3.4534,-3.4553,-3.4568,-3.4672,-3.4603,-3.4601,-3.4626,-3.4619,-3.4641,-3.4642,-3.4631,-3.471,-3.4722,-3.4773,-3.4677,-3.4909,-3.4916,-3.4923,-3.4995,-3.501,-3.5022,0,0,0,0,0,-3.4473,-3.4554,-3.4536,-3.455,-3.4616,-3.4676,-3.4684,-3.467,-3.4631,-3.4669,-3.4673,-3.4641,-3.4761,-3.4718,-3.4732,-3.4785,-3.4906,-3.4914,-3.4922,-3.4989,-3.5007,-3.5022,0,0,0,0,0,0,-3.4539,-3.4556,-3.4536,-3.4626,-3.465,-3.4666,-3.4713,-3.4689,-3.4725,-3.4717,-3.4698,-3.4703,-3.4782,-3.4791,-3.4743,-3.4882,-3.4827,-3.4838,-3.4873,-3.489,-3.4903,-3.4898,-3.4682,0,0,0,0,0,-3.4565,-3.4612,-3.4624,-3.4702,-3.4715,-3.4712,-3.4738,-3.4725,-3.4749,-3.4758,-3.4768,-3.4792,-3.4834,-3.4863,-3.4903,-3.4997,-3.5,-3.504,-3.5054,-3.5065,-3.5075,-3.5124,-3.5141,-3.4953,-3.4953,-3.4953,0,0,-3.4617,-3.4632,-3.4663,-3.4715,-3.4732,-3.4781,-3.4721,-3.4776,-3.4811,-3.4767,-3.4837,-3.4845,-3.487,-3.4955,-3.4993,-3.4965,-3.5128,-3.5076,-3.5084,-3.5088,-3.5134,-3.5152,-3.5167,-3.4959,-3.4958,-3.4957,0,0,-3.4736,-3.4753,-3.4819,-3.4838,-3.4864,-3.4862,-3.4878,-3.4898,-3.4901,-3.4972,-3.4939,-3.4982,-3.5056,-3.5075,-3.5095,-3.5222,-3.5194,-3.5236,-3.5306,-3.5354,-3.5369,-3.5382,-3.5426,-3.5442,-3.5246,-3.5246,-3.5246,0,-3.4797,-3.4871,-3.4856,-3.4913,-3.4936,-3.4899,-3.4965,-3.4983,-3.5022,-3.5039,-3.5008,-3.51,-3.5114,-3.5202,-3.5233,-3.5251,-3.5267,-3.5232,-3.5368,-3.5381,-3.5393,-3.5434,-3.5451,-3.5251,-3.525,-3.525,-3.5249,0,-3.4944,-3.4995,-3.5045,-3.5083,-3.5112,-3.5174,-3.5167,-3.5199,-3.5184,-3.5185,-3.5257,-3.5274,-3.5316,-3.5336,-3.5322,-3.5422,-3.5404,-3.5371,-3.5314,-3.5416,-3.5454,-3.547,-3.5257,-3.5256,-3.5254,-3.5253,0,0,-3.5105,-3.5135,-3.5153,-3.517,-3.5197,-3.5236,-3.5295,-3.5337,-3.5363,-3.5392,-3.544,-3.5504,-3.5474,-3.5496,-3.5484,-3.5527,-3.5625,-3.5488,-3.5489,-3.5512,-3.5734,-3.5757,-3.5776,-3.5607,-3.561,-3.5613,-3.5731,0,-3.5224,-3.5327,-3.5315,-3.5413,-3.546,-3.5425,-3.5477,-3.5499,-3.5502,-3.5541,-3.5544,-3.5589,-3.5546,-3.5559,-3.56,-3.5604,-3.5669,-3.5596,-3.5651,-3.5653,-3.5643,-3.5796,-3.5821,-3.5932,-3.5746,-3.5749,-3.5751,0,-3.5376,-3.541,-3.5512,-3.5532,-3.5551,-3.5597,-3.5634,-3.5673,-3.5697,-3.5695,-3.5721,-3.5701,-3.576,-3.5704,-3.5784,-3.5735,-3.5757,-3.5763,-3.5767,-3.5769,-3.5707,-3.5802,-3.5967,-3.5983,-3.5775,-3.5773,-3.5771,0,-3.5481,-3.5553,-3.5623,-3.5638,-3.5663,-3.5696,-3.5708,-3.5729,-3.5754,-3.5787,-3.5803,-3.5842,-3.5863,-3.5893,-3.5884,-3.5845,-3.5966,-3.591,-3.5965,-3.5966,-3.5991,-3.5989,-3.616,-3.6009,-3.6008,-3.6008,-3.6008,0,-3.5614,-3.5678,-3.567,-3.5713,-3.5783,-3.577,-3.5839,-3.5847,-3.5866,-3.5909,-3.5882,-3.5923,-3.591,-3.5951,-3.5945,-3.6011,-3.6021,-3.6021,-3.6018,-3.6023,-3.6022,-3.6035,-3.6026,-3.6012,-3.6011,-3.6011,-3.601,0,-3.5743,-3.5741,-3.5815,-3.5832,-3.5838,-3.5889,-3.5904,-3.5944,-3.5945,-3.6,-3.6012,-3.6013,-3.606,-3.6055,-3.6106,-3.6102,-3.6184,-3.6173,-3.6176,-3.6173,-3.6228,-3.6222,-3.6413,-3.6436,-3.6271,-3.6272,-3.6274,0,-3.5827,-3.5875,-3.5898,-3.5925,-3.5939,-3.5984,-3.601,-3.5998,-3.6026,-3.6057,-3.6093,-3.6137,-3.6171,-3.6247,-3.6252,-3.6291,-3.628,-3.6344,-3.6285,-3.6288,-3.6279,-3.6275,-3.6279,-3.6355,-3.6356,-3.6358,-3.6359,0,-3.5976,-3.5972,-3.6011,-3.6049,-3.6081,-3.611,-3.6137,-3.6161,-3.6152,-3.6185,-3.6232,-3.6258,-3.6311,-3.6355,-3.6392,-3.6403,-3.638,-3.6378,-3.6392,-3.6396,-3.6395,-3.6395,-3.6205,-3.6373,-3.6372,-3.6371,-3.637,-3.6369,-3.6083,-3.6124,-3.6146,-3.619,-3.6209,-3.6235,-3.6273,-3.6279,-3.6318,-3.636,-3.6351,-3.6404,-3.6426,-3.6473,-3.6489,-3.653,-3.6506,-3.6528,-3.6533,-3.6538,-3.6544,-3.6391,-3.6537,-3.6536,-3.6536,-3.6535,-3.6535,0,-3.6229,-3.6242,-3.6282,-3.6321,-3.6355,-3.6331,-3.6359,-3.6389,-3.6436,-3.6459,-3.6493,-3.6547,-3.6589,-3.6598,-3.6638,-3.6668,-3.6659,-3.6679,-3.6676,-3.6679,-3.6563,-3.6546,-3.6686,-3.6686,-3.6686,-3.6686,-3.6686,-3.6686,-3.6309,-3.6376,-3.6375,-3.6452,-3.6464,-3.6515,-3.6533,-3.6556,-3.6575,-3.6636,-3.6671,-3.6676,-3.6694,-3.6735,-3.6772,-3.6773,-3.6789,-3.6813,-3.681,-3.6702,-3.6687,-3.6672,-3.6656,-3.6817,-3.6817,-3.6922,-3.6923,-3.6924]},{"header":{"parameterUnit":"m.s-1","parameterCategory":1,"la1":30.2991,"la2":30.254,"lo1":-89.0895,"lo2":-89.0444,"dy":0.0017,"dx":0.0017,"nx":28,"ny":28,"refTime":"2024-06-16T09:00:00:Z","depth":0,"parameterNumber":3,"parameterNumberName":"V-component_of_WINDS"},"data":[0,0,0,0,0,0,0,0,0,0,0,0,0,0,0,0,0,0,0,0,0,0,0,0,0,0,0,0,0,0,0,0,0,0,0,0,0,0,0,0,0,0,0,0,0,0,0,0,0,0,0,0,0,0,0,0,0,0,1.502,1.502,0,1.5011,1.5011,1.5011,1.4956,1.4955,1.4953,1.4952,1.4943,1.4944,1.4945,0,0,0,0,0,0,0,0,0,0,0,0,0,1.4991,1.4992,1.502,1.502,1.502,1.5011,1.5011,1.5011,1.4956,1.4955,1.4953,1.4952,1.4942,1.4944,1.4945,0,0,0,0,0,0,0,0,0,0,0,0,0,1.4995,1.4992,1.502,1.4992,1.4989,1.5011,1.5011,1.5011,1.4957,1.4955,1.4953,1.4951,1.4942,1.4943,1.4945,1.4993,0,0,1.4949,1.495,0,0,0,0,0,0,0,0,1.4995,1.4996,1.4996,1.4994,1.4991,1.4983,1.4997,1.5005,1.4957,1.4969,1.4952,1.495,1.4958,1.4958,1.496,1.4993,1.4992,1.4949,1.495,1.4951,1.4951,0,0,0,0,0,0,0,1.4995,1.4996,1.5016,1.4996,1.4993,1.498,1.4978,1.4998,1.4974,1.4968,1.4964,1.4963,1.4956,1.4959,1.496,1.4992,1.4949,1.4951,1.4952,1.4952,1.5065,1.5067,0,0,0,0,0,0,1.4998,1.4996,1.5017,1.5016,1.4988,1.4982,1.498,1.4987,1.4974,1.497,1.4965,1.4961,1.4957,1.4958,1.4959,1.5014,1.4951,1.4952,1.4953,1.5062,1.5065,1.5067,0,0,0,0,0,0,1.4998,1.5001,1.5017,1.5005,1.5006,1.4984,1.4993,1.4988,1.4991,1.4972,1.4968,1.4973,1.4956,1.4957,1.4985,1.5013,1.4953,1.4954,1.506,1.5063,1.5066,1.5126,0,0,0,0,0,0,1.4997,1.5001,1.5019,1.5006,1.5007,1.5043,1.4995,1.4989,1.4994,1.4988,1.4978,1.4974,1.4954,1.4983,1.4987,1.5014,1.4955,1.5057,1.5061,1.5065,1.5121,1.513,1.5139,0,0,0,0,0,1.4996,1.5036,1.502,1.5022,1.5029,1.5045,1.5045,1.5022,1.4996,1.5014,1.5002,1.4975,1.501,1.4987,1.499,1.5018,1.5055,1.506,1.5065,1.5117,1.5129,1.5138,0,0,0,0,0,0,1.5051,1.5033,1.5015,1.5052,1.505,1.5036,1.5057,1.5035,1.504,1.5035,1.5005,1.5004,1.5036,1.503,1.5004,1.5065,1.5028,1.5034,1.5067,1.5078,1.5086,1.5086,1.4957,0,0,0,0,0,1.5068,1.5082,1.5066,1.5099,1.51,1.5079,1.5085,1.5067,1.5064,1.5063,1.5053,1.5052,1.5063,1.507,1.5079,1.5121,1.5118,1.5142,1.5151,1.5158,1.5163,1.5184,1.5195,1.5083,1.5083,1.5083,0,0,1.5102,1.5094,1.5104,1.511,1.5107,1.5123,1.5079,1.5097,1.5108,1.5066,1.5092,1.5085,1.5081,1.5117,1.5132,1.5113,1.5194,1.5164,1.517,1.5171,1.519,1.5201,1.521,1.5086,1.5086,1.5085,0,0,1.5171,1.5167,1.5194,1.5192,1.5188,1.5174,1.5181,1.517,1.5164,1.519,1.5159,1.5172,1.5191,1.519,1.5192,1.5263,1.5238,1.5267,1.5312,1.5333,1.5342,1.535,1.5374,1.5384,1.5272,1.5273,1.5273,0,1.5213,1.5235,1.5211,1.5231,1.5235,1.5199,1.5226,1.5226,1.5225,1.5228,1.5208,1.5231,1.5227,1.5261,1.5278,1.5282,1.5288,1.5267,1.5343,1.535,1.5357,1.538,1.539,1.5276,1.5276,1.5275,1.5275,0,1.5287,1.5303,1.5326,1.5326,1.5333,1.5357,1.5336,1.5346,1.5329,1.5317,1.5344,1.5338,1.5344,1.5352,1.5335,1.5384,1.5372,1.5348,1.531,1.5372,1.5393,1.5401,1.5281,1.528,1.5279,1.5278,0,0,1.5387,1.5376,1.5384,1.5384,1.5378,1.539,1.5414,1.5421,1.5429,1.5431,1.5449,1.5467,1.5445,1.5447,1.543,1.5449,1.5505,1.5422,1.5422,1.5437,1.5559,1.5576,1.5586,1.549,1.5492,1.5493,1.5559,0,1.5452,1.549,1.547,1.5511,1.5525,1.5493,1.5513,1.5512,1.5503,1.5514,1.5504,1.5517,1.5487,1.5488,1.5506,1.5495,1.5529,1.549,1.5506,1.5506,1.5505,1.5597,1.5615,1.5678,1.5567,1.5568,1.5569,0,1.5532,1.5538,1.558,1.5572,1.5578,1.5596,1.5601,1.5613,1.5612,1.5604,1.5607,1.5586,1.5608,1.5573,1.5603,1.5577,1.5583,1.5579,1.5581,1.558,1.554,1.5597,1.5697,1.5706,1.5582,1.5581,1.558,0,1.56,1.5618,1.5646,1.5647,1.5639,1.5653,1.565,1.5647,1.5653,1.5658,1.5661,1.567,1.5673,1.568,1.5662,1.5638,1.5694,1.5658,1.5688,1.5688,1.5699,1.5698,1.5799,1.5706,1.5706,1.5706,1.5706,0,1.5673,1.57,1.5676,1.5692,1.5722,1.57,1.573,1.5723,1.5721,1.5736,1.5709,1.5724,1.57,1.5713,1.5699,1.5726,1.5728,1.5722,1.5717,1.5723,1.5724,1.5725,1.5719,1.5708,1.5708,1.5707,1.5707,0,1.5752,1.5737,1.5765,1.5756,1.5754,1.5776,1.5769,1.5784,1.5774,1.5794,1.5797,1.5781,1.5795,1.5778,1.579,1.5781,1.5817,1.5807,1.5817,1.5814,1.5844,1.5841,1.5948,1.596,1.5861,1.5862,1.5863,0,1.5799,1.5819,1.5812,1.5821,1.582,1.5834,1.584,1.582,1.5828,1.5828,1.5844,1.5855,1.5863,1.5887,1.5876,1.5885,1.5874,1.5911,1.5875,1.5881,1.5873,1.5871,1.5873,1.5918,1.5919,1.592,1.5921,0,1.5883,1.5875,1.5885,1.5894,1.5902,1.5907,1.5911,1.5919,1.5898,1.5908,1.5922,1.5929,1.5942,1.5953,1.596,1.5957,1.5935,1.5933,1.594,1.5945,1.5949,1.5946,1.5835,1.593,1.5929,1.5928,1.5928,1.5927,1.5946,1.5962,1.5961,1.5973,1.5974,1.5978,1.5992,1.5985,1.5996,1.6005,1.5993,1.601,1.6009,1.6016,1.6016,1.603,1.6013,1.6024,1.6027,1.6029,1.6033,1.5949,1.6031,1.6031,1.603,1.603,1.603,0,1.6027,1.6025,1.6038,1.6043,1.6054,1.6034,1.6037,1.6047,1.6063,1.6064,1.6073,1.6089,1.6101,1.6092,1.6102,1.6114,1.6105,1.6117,1.6115,1.6115,1.6047,1.604,1.6125,1.6125,1.6125,1.6125,1.6125,1.6125,1.6071,1.6098,1.609,1.6117,1.6115,1.6132,1.6135,1.6139,1.614,1.616,1.617,1.6164,1.6162,1.6171,1.6181,1.6179,1.6183,1.6199,1.6193,1.6129,1.612,1.6111,1.6103,1.62,1.6201,1.6259,1.6259,1.626]}]]